[[{"header":{"parameterUnit":"m.s-1","parameterCategory":1,"la1":30.2991,"la2":30.254,"lo1":-89.0895,"lo2":-89.0444,"dy":0.0017,"dx":0.0017,"nx":28,"ny":28,"refTime":"2024-07-05T09:00:00:Z","depth":0,"parameterNumber":2,"parameterNumberName":"U-component_of_WINDS"},"data":[0,0,0,0,0,0,0,0,0,0,0,0,0,0,0,0,0,0,0,0,0,0,0,0,0,0,0,0,0,0,0,0,0,0,0,0,0,0,0,0,0,0,0,0,0,0,0,0,0,0,0,0,0,0,0,0,0,0,0.7413,0.7414,0,0.7514,0.7515,0.7516,0.7561,0.7561,0.7561,0.7561,0.7663,0.7666,0.7669,0,0,0,0,0,0,0,0,0,0,0,0,0,0.7257,0.7259,0.7413,0.7414,0.7415,0.7514,0.7515,0.7517,0.7561,0.7561,0.7561,0.7561,0.7662,0.7666,0.7669,0,0,0,0,0,0,0,0,0,0,0,0,0,0.7338,0.726,0.7413,0.745,0.7454,0.7514,0.7515,0.7517,0.7561,0.7561,0.7561,0.7561,0.7661,0.7665,0.767,0.77,0,0,0.7683,0.7685,0,0,0,0,0,0,0,0,0.7333,0.7343,0.7443,0.7447,0.7452,0.7525,0.7498,0.7578,0.7561,0.752,0.7561,0.756,0.7617,0.7625,0.7645,0.7705,0.7709,0.7683,0.7686,0.7688,0.7689,0,0,0,0,0,0,0,0.7327,0.7339,0.7453,0.7444,0.745,0.746,0.7472,0.7513,0.7569,0.7524,0.7527,0.7539,0.762,0.764,0.7647,0.7711,0.7683,0.7687,0.7689,0.7691,0.78,0.78,0,0,0,0,0,0,0.7316,0.7334,0.745,0.7456,0.7391,0.7463,0.7476,0.7502,0.7568,0.7578,0.7539,0.754,0.7633,0.7642,0.7651,0.7691,0.7688,0.7692,0.7694,0.78,0.78,0.78,0,0,0,0,0,0,0.7312,0.7326,0.7446,0.7396,0.7412,0.7466,0.7495,0.7504,0.7524,0.758,0.759,0.755,0.7633,0.7645,0.7687,0.7695,0.7694,0.7697,0.7799,0.78,0.78,0.777,0,0,0,0,0,0,0.7308,0.7324,0.7337,0.7396,0.7415,0.7481,0.7495,0.7506,0.7532,0.7535,0.7593,0.7602,0.7634,0.7681,0.7692,0.7701,0.7701,0.7799,0.7799,0.78,0.7771,0.777,0.7768,0,0,0,0,0,0.7302,0.7324,0.7337,0.7351,0.7432,0.7481,0.7492,0.7528,0.7532,0.7545,0.758,0.76,0.7692,0.7685,0.7697,0.7708,0.7799,0.7799,0.78,0.7771,0.777,0.7769,0,0,0,0,0,0,0.7265,0.7333,0.7348,0.739,0.7429,0.7488,0.7506,0.7526,0.7565,0.7566,0.7609,0.7622,0.766,0.7688,0.7679,0.774,0.7747,0.775,0.7721,0.772,0.7719,0.7711,0.7704,0,0,0,0,0,0.7261,0.7296,0.7354,0.7386,0.7404,0.7451,0.7474,0.7499,0.7541,0.7558,0.7597,0.7637,0.7675,0.7699,0.7737,0.7775,0.7788,0.7788,0.7787,0.7786,0.7788,0.781,0.781,0.7803,0.7803,0.7803,0,0,0.7255,0.7297,0.7316,0.7379,0.7412,0.7447,0.7465,0.7501,0.7527,0.7564,0.7606,0.7635,0.7683,0.7723,0.7742,0.7747,0.7793,0.7786,0.7785,0.7788,0.781,0.7811,0.7812,0.7803,0.7803,0.7803,0,0,0.7261,0.7296,0.7326,0.7359,0.7409,0.744,0.7447,0.7503,0.7524,0.7567,0.7595,0.7626,0.769,0.7723,0.7748,0.7764,0.7784,0.7775,0.777,0.779,0.7791,0.7791,0.7797,0.7799,0.7777,0.7777,0.7777,0,0.7247,0.7301,0.7339,0.7373,0.74,0.7434,0.7465,0.7494,0.7554,0.7571,0.7576,0.7657,0.7691,0.7739,0.7743,0.7762,0.7771,0.7769,0.7787,0.7789,0.779,0.7796,0.7798,0.7776,0.7776,0.7776,0.7776,0,0.728,0.7317,0.7335,0.7392,0.742,0.7452,0.7495,0.7519,0.7541,0.7571,0.7614,0.7656,0.7703,0.7716,0.7737,0.7766,0.7768,0.7779,0.7787,0.7789,0.7795,0.7797,0.7774,0.7774,0.7775,0.7775,0,0,0.7267,0.7344,0.735,0.7376,0.7433,0.7462,0.7494,0.754,0.756,0.7599,0.7628,0.7681,0.7691,0.772,0.7745,0.7763,0.7773,0.7772,0.7774,0.7771,0.7807,0.7798,0.78,0.7786,0.7786,0.7787,0.7803,0,0.7281,0.7342,0.7377,0.7424,0.7458,0.749,0.7519,0.7556,0.7585,0.7617,0.7649,0.7686,0.7697,0.7714,0.7733,0.7767,0.7781,0.7767,0.7812,0.7814,0.78,0.7803,0.7794,0.7808,0.7805,0.7806,0.7806,0,0.7306,0.7344,0.7394,0.7447,0.7463,0.7488,0.7532,0.7563,0.7605,0.7625,0.7656,0.7681,0.7716,0.772,0.7769,0.7759,0.7779,0.7799,0.78,0.7806,0.781,0.781,0.7813,0.7815,0.781,0.781,0.781,0,0.729,0.7355,0.7394,0.7415,0.7477,0.7494,0.752,0.7563,0.7588,0.7626,0.7643,0.7684,0.7707,0.7739,0.7774,0.7774,0.7819,0.7827,0.7836,0.7835,0.7845,0.7844,0.7852,0.7857,0.7857,0.7857,0.7857,0,0.7303,0.7332,0.7388,0.7411,0.7445,0.7484,0.7516,0.7545,0.7582,0.7611,0.7641,0.7668,0.7713,0.7745,0.7773,0.7809,0.7819,0.7835,0.7842,0.7833,0.7831,0.7847,0.7848,0.7858,0.7858,0.7858,0.7857,0,0.7292,0.733,0.7374,0.7429,0.7444,0.7466,0.7513,0.7536,0.7566,0.7602,0.7613,0.766,0.7699,0.7737,0.7789,0.7808,0.7844,0.7853,0.7829,0.7833,0.7841,0.784,0.786,0.7864,0.7866,0.7866,0.7866,0,0.7297,0.7321,0.7378,0.74,0.7426,0.7461,0.7486,0.7525,0.755,0.76,0.7617,0.7659,0.7694,0.7755,0.7793,0.7833,0.7844,0.7848,0.785,0.7839,0.7844,0.7842,0.7844,0.7847,0.7847,0.7846,0.7846,0,0.7303,0.732,0.7356,0.7399,0.7428,0.7463,0.7499,0.7515,0.7561,0.7587,0.7628,0.7655,0.7708,0.7748,0.7793,0.782,0.784,0.7845,0.7849,0.784,0.7826,0.7834,0.7827,0.7845,0.7845,0.7845,0.7845,0.7845,0.73,0.7322,0.7366,0.7405,0.7436,0.7469,0.7493,0.7526,0.756,0.7607,0.7627,0.7668,0.7709,0.7771,0.7797,0.7829,0.7834,0.7841,0.7842,0.7843,0.7841,0.782,0.7837,0.7837,0.7837,0.7837,0.7837,0,0.7307,0.7337,0.7372,0.7422,0.7452,0.7468,0.7509,0.7533,0.7568,0.7605,0.7639,0.7684,0.7724,0.7764,0.7806,0.7823,0.7834,0.7833,0.7832,0.7838,0.7834,0.7826,0.7823,0.7823,0.7823,0.7823,0.7823,0.7823,0.7315,0.7353,0.7375,0.7429,0.7458,0.7498,0.752,0.755,0.7579,0.7629,0.7662,0.7688,0.7726,0.777,0.7806,0.7817,0.7831,0.7828,0.7841,0.7837,0.7838,0.7839,0.7832,0.783,0.783,0.7842,0.7842,0.7842]},{"header":{"parameterUnit":"m.s-1","parameterCategory":1,"la1":30.2991,"la2":30.254,"lo1":-89.0895,"lo2":-89.0444,"dy":0.0017,"dx":0.0017,"nx":28,"ny":28,"refTime":"2024-07-05T09:00:00:Z","depth":0,"parameterNumber":3,"parameterNumberName":"V-component_of_WINDS"},"data":[0,0,0,0,0,0,0,0,0,0,0,0,0,0,0,0,0,0,0,0,0,0,0,0,0,0,0,0,0,0,0,0,0,0,0,0,0,0,0,0,0,0,0,0,0,0,0,0,0,0,0,0,0,0,0,0,0,0,5.6757,5.6757,0,5.6706,5.6706,5.6705,5.6613,5.6611,5.661,5.6608,5.6558,5.6558,5.6558,0,0,0,0,0,0,0,0,0,0,0,0,0,5.6776,5.6777,5.6757,5.6756,5.6756,5.6706,5.6706,5.6705,5.6613,5.6611,5.6609,5.6607,5.6558,5.6558,5.6558,0,0,0,0,0,0,0,0,0,0,0,0,0,5.6751,5.6777,5.6757,5.6704,5.6699,5.6707,5.6706,5.6705,5.6614,5.6611,5.6609,5.6606,5.6558,5.6558,5.6558,5.6614,0,0,5.656,5.656,0,0,0,0,0,0,0,0,5.6753,5.6751,5.6713,5.6708,5.6702,5.6663,5.6694,5.6675,5.6615,5.6646,5.6608,5.6605,5.6595,5.6592,5.6589,5.6612,5.661,5.656,5.656,5.656,5.6561,0,0,0,0,0,0,0,5.6755,5.6752,5.6737,5.6712,5.6706,5.6683,5.6677,5.669,5.6636,5.6643,5.6636,5.6632,5.6592,5.6589,5.6587,5.6609,5.656,5.656,5.6561,5.6561,5.6676,5.6678,0,0,0,0,0,0,5.6764,5.6754,5.6739,5.6735,5.6721,5.6685,5.6678,5.6678,5.6636,5.6627,5.6634,5.6628,5.6589,5.6586,5.6585,5.6647,5.656,5.6561,5.6561,5.6673,5.6676,5.6679,0,0,0,0,0,0,5.6765,5.6763,5.6741,5.6743,5.6738,5.6688,5.6689,5.6679,5.6675,5.6629,5.6619,5.664,5.6587,5.6584,5.6608,5.6644,5.6561,5.6562,5.667,5.6674,5.6678,5.6772,0,0,0,0,0,0,5.6766,5.6764,5.6784,5.6744,5.6739,5.6764,5.6691,5.668,5.6676,5.6667,5.6632,5.6624,5.6585,5.6607,5.6608,5.6643,5.6562,5.6666,5.6672,5.6676,5.6766,5.6779,5.6791,0,0,0,0,0,5.6767,5.6814,5.6786,5.6785,5.6763,5.6766,5.6763,5.6717,5.668,5.67,5.667,5.6625,5.664,5.6611,5.6611,5.6646,5.6664,5.667,5.6676,5.676,5.6776,5.679,0,0,0,0,0,0,5.686,5.6807,5.6776,5.6811,5.6794,5.6751,5.6775,5.6736,5.6729,5.6721,5.6664,5.6657,5.6688,5.6669,5.6637,5.6698,5.6645,5.6651,5.6709,5.6724,5.6736,5.674,5.6562,0,0,0,0,0,5.6885,5.6891,5.6845,5.688,5.6873,5.6826,5.6826,5.6791,5.6771,5.6764,5.6735,5.6718,5.6719,5.672,5.6719,5.6763,5.6754,5.6788,5.68,5.6811,5.6817,5.6838,5.6853,5.67,5.67,5.67,0,0,5.6935,5.6907,5.6915,5.6899,5.6881,5.689,5.682,5.6832,5.6838,5.6765,5.6785,5.6765,5.6742,5.6776,5.6789,5.6761,5.6857,5.6819,5.6827,5.6827,5.6846,5.6861,5.6874,5.6704,5.6703,5.6703,0,0,5.7032,5.7012,5.7039,5.7023,5.6997,5.6965,5.6972,5.6935,5.6918,5.6937,5.6883,5.689,5.6892,5.6878,5.6871,5.6963,5.6922,5.6965,5.703,5.7051,5.7063,5.7074,5.7106,5.7119,5.6971,5.6971,5.6971,0,5.7099,5.7109,5.7058,5.7073,5.7068,5.7002,5.7029,5.7016,5.6992,5.699,5.6959,5.6961,5.6941,5.697,5.6993,5.699,5.6996,5.6968,5.7066,5.7076,5.7085,5.7115,5.7127,5.6977,5.6976,5.6975,5.6975,0,5.7192,5.72,5.7225,5.7202,5.7199,5.7221,5.7174,5.7177,5.7144,5.7116,5.7136,5.711,5.7101,5.7106,5.7074,5.7131,5.7115,5.7076,5.7021,5.7105,5.7133,5.7144,5.6984,5.6982,5.6981,5.6979,0,0,5.7345,5.7294,5.7304,5.7293,5.726,5.7265,5.7284,5.7275,5.7279,5.7265,5.7279,5.7284,5.7247,5.724,5.7205,5.7224,5.7299,5.7183,5.7181,5.7205,5.736,5.7389,5.7403,5.7271,5.7273,5.7275,5.7362,0,5.7434,5.7462,5.7417,5.7456,5.7463,5.7401,5.7417,5.7399,5.7374,5.7376,5.7348,5.7352,5.7304,5.7299,5.7315,5.7286,5.7329,5.7279,5.7284,5.7285,5.7291,5.7418,5.7448,5.7532,5.7372,5.7374,5.7376,0,5.7541,5.7531,5.7571,5.7535,5.7537,5.7552,5.754,5.7544,5.7522,5.7502,5.7494,5.7453,5.747,5.7418,5.7439,5.7407,5.7406,5.7392,5.7394,5.7392,5.7335,5.7418,5.7557,5.7569,5.7392,5.7391,5.739,0,5.7648,5.7645,5.7668,5.766,5.762,5.7632,5.7616,5.7592,5.759,5.758,5.7578,5.7571,5.7567,5.7563,5.7521,5.7487,5.7548,5.7492,5.7532,5.7533,5.7546,5.7546,5.7686,5.7548,5.7548,5.7547,5.7547,0,5.7751,5.7778,5.7715,5.7729,5.7757,5.7706,5.7735,5.7713,5.7692,5.7701,5.7648,5.7658,5.7603,5.7607,5.7574,5.7597,5.7596,5.758,5.7571,5.7585,5.7587,5.7583,5.7575,5.7551,5.755,5.7549,5.7549,0,5.7874,5.7834,5.7855,5.7815,5.7806,5.7828,5.7794,5.7806,5.7777,5.779,5.7789,5.7745,5.7747,5.7705,5.7699,5.7677,5.7714,5.7695,5.7721,5.7714,5.7756,5.7752,5.7898,5.7914,5.7767,5.7768,5.7769,0,5.7943,5.7961,5.7924,5.7926,5.7912,5.7916,5.7914,5.7865,5.7864,5.7842,5.7856,5.7854,5.7849,5.7855,5.7822,5.7817,5.7797,5.7848,5.7796,5.7809,5.7797,5.7796,5.7797,5.7859,5.7861,5.7863,5.7864,0,5.8068,5.8047,5.8045,5.8036,5.8034,5.8025,5.8012,5.8017,5.7964,5.7966,5.7967,5.7964,5.7957,5.7955,5.7944,5.7928,5.7887,5.7881,5.7889,5.7903,5.7917,5.7909,5.775,5.7877,5.7876,5.7875,5.7874,5.7874,5.8165,5.8178,5.8154,5.8154,5.8139,5.8129,5.8138,5.811,5.811,5.8101,5.8072,5.8078,5.8057,5.8037,5.8025,5.8029,5.8004,5.8017,5.802,5.8023,5.8031,5.7917,5.8027,5.8027,5.8026,5.8026,5.8026,0,5.8286,5.8268,5.8268,5.8252,5.8252,5.8214,5.8198,5.82,5.8206,5.819,5.8186,5.8187,5.8186,5.8153,5.8147,5.8157,5.8138,5.8157,5.8155,5.8152,5.8054,5.8047,5.8172,5.8172,5.8172,5.8172,5.8172,5.8172,5.835,5.8371,5.8347,5.8361,5.8342,5.8347,5.8341,5.8332,5.8318,5.8322,5.832,5.8299,5.8276,5.8268,5.8265,5.8255,5.8255,5.828,5.8265,5.8173,5.8159,5.8146,5.8138,5.8281,5.8281,5.8362,5.8363,5.8363]}]]